Weather History for Kemmerer, WY

Change the Weather History Date:

Thursday, October 10, 2013

  Actual Average Record
Temperature  
Mean Temperature 40 °F -  
Max Temperature 46 °F 57 °F 75 °F (1952)
Min Temperature 33 °F 26 °F 14 °F (1982)
Degree Days  
Heating Degree Days 26    
Moisture  
Dew Point 35 °F    
Average Humidity 82    
Maximum Humidity 100    
Minimum Humidity 62    
Precipitation  
Precipitation 0.10 in - - ()
Sea Level Pressure  
Sea Level Pressure 29.79 in    
Wind  
Wind Speed 12 mph (NNE)    
Max Wind Speed 22 mph    
Max Gust Speed 24 mph    
Visibility 10 miles    
Events Rain    
Averages and records for this station are not official NWS values.
T = Trace of Precipitation, MM = Missing Value Source: NWS Daily Summary

Daily Weather History Graph

Daily Weather History Graph

Search for Another Location

Airport:

Trip Planner

Search our weather history database for the weather conditions in past years. The results will help you decide how hot, cold, wet, or windy it might be!

Date:

Astronomy

Oct. 10, 2013 Rise Set
Actual Time 7:29 AM MDT 6:48 PM MDT
Civil Twilight 7:01 AM MDT 7:16 PM MDT
Nautical Twilight 6:29 AM MDT 7:48 PM MDT
Astronomical Twilight 5:56 AM MDT 8:20 PM MDT
Moon 1:27 PM MDT (10/10) 11:26 PM MDT (10/10)
Length of Visible Light 12h 14m
Length of Day
11h 19m
Waxing Crescent, 36% of the Moon is Illuminated
Oct 10
Waxing Crescent
Oct 11
First Quarter
Oct 18
Full
Oct 26
Last Quarter
Nov 3
New

Hourly Weather History & Observations

Time (MDT) Temp. Windchill Dew Point Humidity Pressure Visibility Wind Dir Wind Speed Gust Speed Precip Events Conditions
12:15 AM 42.8 °F 35.4 °F 32.0 °F 66% 29.87 in 10.0 mi NE 15.0 mph - N/A   Mostly Cloudy
12:35 AM 41.0 °F 33.1 °F 33.8 °F 76% 29.87 in 10.0 mi NNE 15.0 mph - N/A   Scattered Clouds
12:55 AM 41.0 °F 33.5 °F 33.8 °F 76% 29.85 in 10.0 mi NNE 13.8 mph 19.6 mph N/A   Clear
1:15 AM 41.0 °F 31.6 °F 33.8 °F 76% 29.83 in 10.0 mi NNE 20.7 mph 24.2 mph N/A   Clear
1:35 AM 41.0 °F 34.3 °F 33.8 °F 76% 29.84 in 10.0 mi NE 11.5 mph - N/A   Clear
1:55 AM 41.0 °F 32.8 °F 33.8 °F 76% 29.85 in 10.0 mi NE 16.1 mph - N/A   Mostly Cloudy
2:15 AM 41.0 °F 33.9 °F 33.8 °F 76% 29.86 in 10.0 mi ENE 12.7 mph - N/A   Overcast
2:35 AM 41.0 °F 31.4 °F 33.8 °F 76% 29.80 in 10.0 mi NNE 21.9 mph - N/A   Light Drizzle
2:55 AM 41.0 °F 35.2 °F 33.8 °F 76% 29.81 in 10.0 mi NNE 9.2 mph - N/A   Clear
3:15 AM 41.0 °F 34.3 °F 33.8 °F 76% 29.82 in 10.0 mi North 11.5 mph 16.1 mph N/A   Scattered Clouds
3:35 AM 41.0 °F 33.1 °F 33.8 °F 76% 29.81 in 10.0 mi North 15.0 mph 18.4 mph N/A   Mostly Cloudy
3:55 AM 41.0 °F 35.8 °F 33.8 °F 76% 29.83 in 10.0 mi North 8.1 mph - N/A   Mostly Cloudy
4:15 AM 41.0 °F 34.7 °F 33.8 °F 76% 29.82 in 10.0 mi North 10.4 mph - N/A   Scattered Clouds
4:35 AM 42.8 °F 35.1 °F 32.0 °F 66% 29.81 in 10.0 mi ENE 16.1 mph 20.7 mph N/A   Clear
4:55 AM 39.2 °F 31.6 °F 33.8 °F 81% 29.81 in 10.0 mi NNE 12.7 mph - N/A   Mostly Cloudy
5:15 AM 39.2 °F 30.8 °F 33.8 °F 81% 29.80 in 10.0 mi NE 15.0 mph 19.6 mph N/A   Overcast
5:35 AM 39.2 °F 31.6 °F 33.8 °F 81% 29.80 in 10.0 mi NNE 12.7 mph - N/A   Overcast
5:55 AM 39.2 °F 32.5 °F 33.8 °F 81% 29.80 in 10.0 mi NNE 10.4 mph - N/A   Mostly Cloudy
6:15 AM 41.0 °F 37.1 °F 32.0 °F 70% 29.80 in 10.0 mi NNE 5.8 mph 9.2 mph N/A   Scattered Clouds
6:35 AM 39.2 °F 33.0 °F 33.8 °F 81% 29.80 in 10.0 mi North 9.2 mph - N/A   Mostly Cloudy
6:55 AM 39.2 °F 32.0 °F 33.8 °F 81% 29.80 in 10.0 mi North 11.5 mph - N/A   Mostly Cloudy
7:35 AM 37.4 °F 30.3 °F 33.8 °F 87% 29.79 in 10.0 mi NNE 10.4 mph - N/A   Overcast
7:55 AM 39.2 °F 32.0 °F 33.8 °F 81% 29.79 in 10.0 mi NNE 11.5 mph - N/A   Overcast
8:15 AM 39.2 °F 32.5 °F 33.8 °F 81% 29.80 in 10.0 mi NNE 10.4 mph - N/A   Drizzle
8:35 AM 39.2 °F 37.0 °F 33.8 °F 81% 29.81 in 10.0 mi North 3.5 mph - N/A Rain Rain
8:55 AM 37.4 °F 32.8 °F 35.6 °F 93% 29.81 in 10.0 mi NE 5.8 mph - N/A Rain Light Rain
9:15 AM 37.4 °F 32.1 °F 35.6 °F 93% 29.80 in 10.0 mi NE 6.9 mph - N/A Rain Light Rain
9:35 AM 39.2 °F 35.0 °F 37.4 °F 93% 29.80 in 10.0 mi NE 5.8 mph - 0.01 in Rain Light Rain
9:55 AM 37.4 °F 32.8 °F 35.6 °F 93% 29.80 in 10.0 mi ENE 5.8 mph - 0.02 in Rain Light Rain
10:15 AM 37.4 °F 28.9 °F 35.6 °F 93% 29.78 in 10.0 mi NE 13.8 mph - 0.01 in Rain Light Rain
10:35 AM 37.4 °F 28.5 °F 35.6 °F 93% 29.77 in 10.0 mi NNE 15.0 mph - 0.02 in   Mostly Cloudy
10:55 AM 37.4 °F 28.9 °F 35.6 °F 93% 29.76 in 10.0 mi North 13.8 mph - 0.02 in   Overcast
11:15 AM 37.4 °F 28.2 °F 35.6 °F 93% 29.75 in 10.0 mi NNE 16.1 mph - N/A   Mostly Cloudy
11:35 AM 39.2 °F 32.5 °F 37.4 °F 93% 29.77 in 10.0 mi NE 10.4 mph - N/A   Mostly Cloudy
11:55 AM 41.0 °F 35.2 °F 37.4 °F 87% 29.77 in 10.0 mi NE 9.2 mph 17.3 mph N/A   Overcast
12:15 PM 41.0 °F 35.2 °F 37.4 °F 87% 29.76 in 10.0 mi NE 9.2 mph - N/A   Overcast
12:35 PM 41.0 °F 33.5 °F 37.4 °F 87% 29.75 in 10.0 mi NNE 13.8 mph 18.4 mph N/A   Overcast
12:55 PM 41.0 °F 34.7 °F 37.4 °F 87% 29.75 in 10.0 mi NE 10.4 mph - N/A   Overcast
1:15 PM 41.0 °F 34.7 °F 37.4 °F 87% 29.75 in 10.0 mi NE 10.4 mph - N/A   Overcast
1:35 PM 41.0 °F 35.2 °F 35.6 °F 81% 29.75 in 10.0 mi NE 9.2 mph - N/A   Overcast
1:55 PM 42.8 °F 39.3 °F 35.6 °F 76% 29.74 in 10.0 mi NE 5.8 mph - N/A   Overcast
2:15 PM 42.8 °F 38.6 °F 35.6 °F 76% 29.73 in 10.0 mi ENE 6.9 mph - N/A   Overcast
2:35 PM 42.8 °F 40.1 °F 35.6 °F 76% 29.74 in 10.0 mi ENE 4.6 mph - N/A   Overcast
2:55 PM 44.6 °F 40.7 °F 35.6 °F 71% 29.74 in 10.0 mi East 6.9 mph - N/A   Overcast
3:15 PM 42.8 °F 39.3 °F 35.6 °F 76% 29.74 in 10.0 mi East 5.8 mph - N/A   Overcast
3:35 PM 44.6 °F 42.2 °F 35.6 °F 71% 29.73 in 10.0 mi ENE 4.6 mph - N/A   Scattered Clouds
3:55 PM 44.6 °F 41.4 °F 33.8 °F 66% 29.73 in 10.0 mi NNE 5.8 mph - N/A   Scattered Clouds
4:15 PM 46.4 °F 44.3 °F 33.8 °F 62% 29.73 in 10.0 mi NNE 4.6 mph - N/A   Clear
4:35 PM 44.6 °F 42.2 °F 33.8 °F 66% 29.73 in 10.0 mi NNW 4.6 mph - N/A   Clear
4:55 PM 44.6 °F 43.1 °F 33.8 °F 66% 29.74 in 10.0 mi NNW 3.5 mph - N/A   Mostly Cloudy
5:15 PM 42.8 °F 36.2 °F 35.6 °F 76% 29.74 in 10.0 mi NNW 12.7 mph 16.1 mph N/A   Overcast
5:35 PM 41.0 °F 33.5 °F 35.6 °F 81% 29.75 in 10.0 mi NNW 13.8 mph - N/A   Overcast
5:55 PM 39.2 °F 32.0 °F 35.6 °F 87% 29.76 in 10.0 mi NW 11.5 mph - N/A   Overcast
6:15 PM 37.4 °F 28.5 °F 35.6 °F 93% 29.77 in 10.0 mi NW 15.0 mph - N/A   Overcast
6:35 PM 35.6 °F 26.2 °F 33.8 °F 93% 29.77 in 10.0 mi NNW 15.0 mph 18.4 mph N/A   Overcast
6:55 PM 35.6 °F 25.9 °F 33.8 °F 93% 29.77 in 10.0 mi NW 16.1 mph 20.7 mph N/A   Overcast
7:15 PM 35.6 °F 26.2 °F 33.8 °F 93% 29.78 in 10.0 mi NW 15.0 mph 20.7 mph N/A   Light Drizzle
7:35 PM 35.6 °F 26.2 °F 33.8 °F 93% 29.78 in 5.0 mi NW 15.0 mph - 0.01 in Rain Rain
8:35 PM 33.8 °F 24.3 °F 33.8 °F 100% 29.79 in 7.0 mi West 13.8 mph - 0.03 in Rain Light Rain
10:55 PM 33.8 °F 23.5 °F 33.8 °F 100% 29.81 in 10.0 mi West 16.1 mph - 0.02 in Rain Light Rain
11:55 PM 35.6 °F 25.9 °F 33.8 °F 93% 29.83 in 10.0 mi West 16.1 mph 21.9 mph N/A   Overcast